| time (UTC) | temp F | wind direction | speed MPH | gust MPH | rain 1hr in | rain 24hr in | rain mn in | humidity % | barometer mb |
| 20260505170040 | 36 | 244 | 0.0 | 3.0 | 0.00 | 0.06 | 0.05 | 89 | 1004.2 |
| 20260505164540 | 36 | 211 | 0.0 | 3.0 | 0.01 | 0.06 | 0.05 | 89 | 1004.1 |
| 20260505163037 | 36 | 247 | 0.0 | 2.0 | 0.01 | 0.06 | 0.05 | 90 | 1004.0 |
| 20260505161536 | 36 | 250 | 0.0 | 2.0 | 0.01 | 0.06 | 0.05 | 89 | 1004.1 |
| 20260505153033 | 36 | 235 | 1.0 | 2.0 | 0.00 | 0.05 | 0.04 | 88 | 1004.0 |
| 20260505151532 | 36 | 223 | 0.0 | 1.0 | 0.00 | 0.05 | 0.04 | 89 | 1003.9 |
| 20260505124508 | 42 | 165 | 0.0 | 1.0 | 0.00 | 0.05 | 0.04 | 82 | 1001.8 |
| 20260505123008 | 42 | 202 | 0.0 | 1.0 | 0.00 | 0.05 | 0.04 | 81 | 1001.6 |
| 20260505121510 | 42 | 204 | 0.0 | 2.0 | 0.00 | 0.05 | 0.04 | 80 | 1001.1 |
| 20260505120006 | 42 | 195 | 0.0 | 1.0 | 0.00 | 0.05 | 0.04 | 81 | 1001.0 |
| 20260505114606 | 42 | 163 | 0.0 | 2.0 | 0.00 | 0.05 | 0.04 | 82 | 1001.1 |
| 20260505113008 | 42 | 197 | 0.0 | 2.0 | 0.00 | 0.05 | 0.04 | 82 | 1000.9 |
| 20260505111509 | 42 | 209 | 0.0 | 1.0 | 0.01 | 0.05 | 0.04 | 84 | 1000.7 |
| 20260505101600 | 42 | 213 | 0.0 | 2.0 | 0.02 | 0.04 | 0.03 | 90 | 1000.5 |
| 20260505100104 | 42 | 167 | 0.0 | 0.0 | 0.01 | 0.03 | 0.02 | 90 | 1000.5 |
| 20260505094607 | 43 | 167 | 0.0 | 0.0 | 0.00 | 0.02 | 0.01 | 89 | 1000.5 |
| 20260505093056 | 43 | 167 | 0.0 | 0.0 | 0.00 | 0.02 | 0.01 | 87 | 1000.4 |
| 20260505091553 | 43 | 167 | 0.0 | 0.0 | 0.00 | 0.02 | 0.01 | 88 | 1000.4 |
| 20260505090106 | 44 | 200 | 0.0 | 1.0 | 0.00 | 0.02 | 0.01 | 88 | 1000.5 |
| 20260505084549 | 44 | 196 | 0.0 | 0.0 | 0.00 | 0.02 | 0.01 | 86 | 1000.8 |
| 20260505083047 | 44 | 196 | 0.0 | 0.0 | 0.00 | 0.02 | 0.01 | 87 | 1001.2 |
| 20260505081549 | 44 | 252 | 0.0 | 1.0 | 0.00 | 0.02 | 0.01 | 87 | 1001.4 |
| 20260505080052 | 44 | 232 | 0.0 | 2.0 | 0.00 | 0.02 | 0.01 | 87 | 1001.4 |
| 20260505074543 | 44 | 241 | 0.0 | 1.0 | 0.00 | 0.02 | 0.01 | 87 | 1001.7 |
| 20260505073053 | 44 | 221 | 0.0 | 1.0 | 0.00 | 0.02 | 0.01 | 87 | 1001.9 |
| 20260505071540 | 44 | 240 | 0.0 | 2.0 | 0.00 | 0.02 | 0.01 | 86 | 1002.0 |
| 20260505070049 | 44 | 225 | 0.0 | 1.0 | 0.01 | 0.02 | 0.01 | 86 | 1002.1 |
| 20260505064538 | 44 | 243 | 0.0 | 1.0 | 0.01 | 0.02 | 0.01 | 86 | 1002.2 |
| 20260505063037 | 44 | 243 | 0.0 | 0.0 | 0.01 | 0.02 | 0.01 | 85 | 1002.1 |
| 20260505061535 | 45 | 237 | 0.0 | 1.0 | 0.02 | 0.02 | 0.01 | 84 | 1002.0 |
| 20260505060035 | 45 | 155 | 0.0 | 1.0 | 0.01 | 0.01 | 0.00 | 84 | 1002.3 |
| 20260505054534 | 45 | 235 | 0.0 | 0.0 | 0.01 | 0.01 | 0.01 | 83 | 1002.5 |
| 20260505053032 | 45 | 235 | 0.0 | 2.0 | 0.01 | 0.01 | 0.01 | 80 | 1002.4 |
| 20260505051536 | 45 | 229 | 0.0 | 1.0 | 0.00 | 0.00 | 0.00 | 80 | 1002.3 |
| 20260505041547 | 45 | 225 | 0.0 | 3.0 | 0.00 | 0.00 | 0.00 | 81 | 1001.3 |
| 20260505040030 | 46 | 248 | 2.0 | 4.0 | 0.00 | 0.00 | 0.00 | 80 | 1001.2 |
| 20260505034528 | 46 | 246 | 0.0 | 4.0 | 0.00 | 0.00 | 0.00 | 78 | 1000.9 |
| 20260505033028 | 47 | 255 | 1.0 | 5.0 | 0.00 | 0.00 | 0.00 | 76 | 1001.2 |
| 20260505031530 | 47 | 342 | 3.0 | 5.0 | 0.00 | 0.00 | 0.00 | 77 | 1001.0 |
| 20260505030034 | 48 | 248 | 1.0 | 3.0 | 0.00 | 0.00 | 0.00 | 77 | 1000.6 |
| 20260505024527 | 48 | 237 | 0.0 | 3.0 | 0.00 | 0.00 | 0.00 | 75 | 1001.0 |
| 20260505023033 | 48 | 228 | 0.0 | 2.0 | 0.00 | 0.00 | 0.00 | 76 | 1000.7 |
| 20260505021528 | 48 | 240 | 0.0 | 2.0 | 0.00 | 0.00 | 0.00 | 75 | 1000.8 |
| 20260505020026 | 48 | 189 | 0.0 | 2.0 | 0.00 | 0.00 | 0.00 | 73 | 1000.8 |
| 20260505014523 | 49 | 101 | 3.0 | 7.0 | 0.00 | 0.00 | 0.00 | 71 | 1000.5 |
| 20260505013023 | 53 | 237 | 0.0 | 8.0 | 0.00 | 0.00 | 0.00 | 57 | 1000.4 |
| 20260505011528 | 54 | 262 | 3.0 | 6.0 | 0.00 | 0.00 | 0.00 | 48 | 1000.1 |
| 20260505010019 | 55 | 252 | 4.0 | 9.0 | 0.00 | 0.00 | 0.00 | 47 | 999.6 |
| 20260505004531 | 55 | 263 | 5.0 | 8.0 | 0.00 | 0.00 | 0.00 | 45 | 999.1 |
| 20260505003017 | 57 | 244 | 3.0 | 9.0 | 0.00 | 0.00 | 0.00 | 41 | 998.7 |
| 20260505001516 | 58 | 259 | 4.0 | 11.0 | 0.00 | 0.00 | 0.00 | 39 | 998.0 |
| 20260505000027 | 60 | 240 | 1.0 | 6.0 | 0.00 | 0.00 | 0.00 | 36 | 997.5 |
| 20260504234515 | 61 | 225 | 3.0 | 8.0 | 0.00 | 0.00 | 0.00 | 35 | 997.5 |
| 20260504233014 | 61 | 136 | 4.0 | 11.0 | 0.00 | 0.00 | 0.00 | 36 | 997.6 |
| 20260504231514 | 61 | 96 | 3.0 | 7.0 | 0.00 | 0.00 | 0.00 | 36 | 997.7 |
| 20260504230018 | 62 | 121 | 2.0 | 6.0 | 0.00 | 0.00 | 0.00 | 35 | 997.7 |
| 20260504224513 | 62 | 218 | 1.0 | 5.0 | 0.00 | 0.00 | 0.00 | 35 | 997.6 |
| 20260504223013 | 63 | 150 | 1.0 | 5.0 | 0.00 | 0.00 | 0.00 | 30 | 997.5 |
| 20260504221518 | 63 | 157 | 1.0 | 11.0 | 0.00 | 0.00 | 0.00 | 30 | 997.3 |
| 20260504220012 | 64 | 105 | 1.0 | 9.0 | 0.00 | 0.00 | 0.00 | 30 | 997.1 |
| 20260504214513 | 64 | 159 | 0.0 | 2.0 | 0.00 | 0.00 | 0.00 | 28 | 997.0 |
| 20260504213033 | 62 | 164 | 1.0 | 9.0 | 0.00 | 0.00 | 0.00 | 31 | 997.3 |
| 20260504211516 | 64 | 274 | 2.0 | 8.0 | 0.00 | 0.00 | 0.00 | 28 | 996.9 |
| 20260504210012 | 66 | 171 | 4.0 | 12.0 | 0.00 | 0.00 | 0.00 | 26 | 996.8 |
| 20260504204509 | 69 | 256 | 5.0 | 18.0 | 0.00 | 0.00 | 0.00 | 24 | 996.8 |
| 20260504203010 | 69 | 275 | 2.0 | 7.0 | 0.00 | 0.00 | 0.00 | 24 | 996.9 |
| 20260504201512 | 66 | 221 | 1.0 | 9.0 | 0.00 | 0.00 | 0.00 | 24 | 997.2 |
| 20260504200005 | 66 | 275 | 4.0 | 13.0 | 0.00 | 0.00 | 0.00 | 25 | 997.5 |
| 20260504194505 | 66 | 287 | 4.0 | 9.0 | 0.00 | 0.00 | 0.00 | 25 | 997.7 |
| 20260504193005 | 67 | 296 | 6.0 | 11.0 | 0.00 | 0.00 | 0.00 | 21 | 997.6 |
| 20260504191503 | 69 | 136 | 1.0 | 8.0 | 0.00 | 0.00 | 0.00 | 21 | 997.5 |
| 20260504190002 | 71 | 208 | 0.0 | 4.0 | 0.00 | 0.00 | 0.00 | 17 | 997.6 |
| 20260504184608 | 70 | 259 | 1.0 | 6.0 | 0.00 | 0.00 | 0.00 | 21 | 997.9 |
| 20260504183058 | 70 | 259 | 4.0 | 8.0 | 0.00 | 0.00 | 0.00 | 19 | 998.2 |
| 20260504181556 | 72 | 194 | 1.0 | 4.0 | 0.00 | 0.00 | 0.00 | 17 | 998.4 |
| 20260504180052 | 70 | 200 | 1.0 | 9.0 | 0.00 | 0.00 | 0.00 | 19 | 998.7 |
| 20260504174600 | 69 | 139 | 4.0 | 14.0 | 0.00 | 0.00 | 0.00 | 20 | 999.0 |
| 20260504173051 | 66 | 164 | 3.0 | 12.0 | 0.00 | 0.00 | 0.00 | 24 | 999.5 |
| 20260504171544 | 67 | 263 | 3.0 | 9.0 | 0.00 | 0.00 | 0.00 | 26 | 999.6 |